Location: Alsip
(41.6689°N, 87.7387°W)
Time: 15:08:23
(UTC+00:00)

Meteor 2-4 Rocket - Pass Details

Date: 14 July 2020
Orbit: 799 x 908 km, 81.2° (Epoch: 12 August)

Event Time Altitude Azimuth Distance (km) Brightness Sun altitude
Rises 07:03:36 0° 355° (N) 3,547 8.0 -24.9°
Reaches altitude 10° 07:06:11 10° 0° (N) 2,600 7.2 -24.7°
Maximum altitude 07:11:57 51° 76° (ENE) 1,124 4.4 -24.4°
Enters shadow 07:14:40 29° 136° (SE) 1,567 4.8 -24.2°
